Vertical_Velocity
-1 -1 -0 -1 1 2 -1 -0 0 1 0 0 -1 -1 -1 -2 -1 1 -1 -2 2 -1 1 -1 -2 -3 -2 -3 -1 -1 -0 1 1 -2 -1 1 -0 -2 1 1 -0 -1 -0
1 3 -1 -1 -1 0 -1 -0 -0 -1 -1 -1 1 -1 -0 -1 -2 -1 1 -2 -1 -1 0 1 -1 -2 -3 -1 -2 -0 -2 -3 1 3 -1 1 -0 3 2 -1 0 -0 0
-0 1 1 -1 -2 -1 -1 2 3 3 1 -3 -3 -1 0 0 -0 -0 1 1 1 0 0 2 1 -0 -0 -3 -0 0 -2 -2 -1 -1 -1 -2 1 3 1 -2 -2 -0 1
0 -0 -1 0 -2 -2 2 -0 -1 -1 0 0 -0 1 2 1 -1 -0 2 -1 0 1 1 0 -1 -0 0 -1 -2 -1 -2 -2 -2 1 1 -1 -0 -1 3 0 -1 1 -0
-2 -1 -3 -3 -1 -2 -2 -2 -1 -0 -1 0 -1 -2 -3 -2 -2 0 -1 2 1 1 -1 0 1 -0 -2 0 1 1 3 1 -2 -1 1 -0 -0 2 -1 1 0 1 1
-1 -1 -2 -3 -1 -1 -2 -2 -0 -0 0 -2 -2 -2 -0 -2 3 0 1 1 1 -0 -1 -3 -2 1 -0 -1 -2 -2 0 0 3 -1 1 -0 3 0 -1 1 0 2 1
-1 0 1 -0 2 -1 0 -1 -1 -2 -2 -0 -3 1 0 1 -2 -1 -1 -0 1 1 1 -1 -2 -1 0 -2 -2 -3 -1 1 -1 -0 2 2 -0 0 -0 0 3 -1 -1
-2 -1 1 3 4 -2 -1 0 2 -1 0 -4 1 10 -1 2 -1 -1 -2 -1 1 1 0 1 1 1 0 -1 -1 1 1 1 -1 -1 0 1 -1 2 3 -1 1 -1 0
1 -3 -2 2 11 9 -1 2 1 3 -1 -1 -1 -0 -2 -1 -2 0 -0 -0 1 1 2 2 -1 0 1 -6 -4 -0 -0 3 4 1 -1 2 7 4 -1 1 -0 2 4
-2 -3 1 10 44 3 -7 0 -0 2 -1 -1 1 -2 0 -2 2 -3 -2 -2 -1 1 -0 0 -0 1 1 -2 -3 1 3 4 1 -1 2 1 4 4 5 1 0 2 -1
-3 -4 1 -1 4 -13 12 5 0 -1 1 -1 -4 -1 0 -5 -5 -3 -2 2 -1 2 -1 -2 1 2 2 0 -2 1 4 -6 -1 -0 3 7 16 3 8 3 7 2 4
-2 -6 1 -0 1 9 7 9 7 -1 -1 -2 -2 -2 -3 -2 -1 -2 -4 -3 -3 3 -2 -5 -0 -0 -3 -1 -4 8 1 -2 1 1 3 6 5 -2 4 5 -3 0 2
-1 -0 -4 2 9 1 22 5 4 3 -3 -1 -0 -3 -3 -0 1 -4 -5 -2 -1 0 2 3 1 2 2 2 1 3 1 2 3 1 3 -0 1 2 1 3 0 -4 -1
-4 -1 -3 5 11 7 28 -3 4 1 -2 -3 0 0 -2 -1 -4 -4 -0 0 1 -0 -1 -1 2 2 -1 -1 1 -2 2 -0 2 3 2 3 2 1 0 -0 -2 -1 4
4 2 -3 4 16 3 -7 4 2 -5 -3 -0 1 -2 -0 -2 -3 -4 -5 -5 -3 0 -1 -5 -4 -3 -2 -0 1 2 1 -2 1 4 3 3 1 1 1 2 -1 -3 -1
-4 -18 -5 5 7 4 1 -3 -3 -2 1 2 1 -1 0 -2 -1 -4 -3 0 -1 -4 0 -2 -2 2 -0 -4 -1 2 -0 -2 2 5 3 4 4 2 4 3 2 1 -2
2 2 -1 -11 -6 -4 -1 -2 0 1 -1 1 0 -1 0 -3 -0 0 -3 -2 1 -2 -0 -2 -2 0 -0 -3 -1 -3 -4 -4 -3 2 -0 8 3 4 2 3 2 1 -0
-0 1 1 1 2 -0 -1 0 -0 -1 -1 1 3 -0 -4 -1 -1 -1 -1 -1 -0 -3 0 1 -1 -0 -1 -0 0 -2 0 -2 -3 1 -0 -0 1 3 2 -0 -1 -0 -0
-0 2 1 3 1 -0 1 -0 -0 -1 1 2 1 -1 -5 -1 -2 2 0 0 -2 -3 1 0 -1 -0 0 -5 -1 1 -2 -1 -2 -0 -2 -1 -0 2 1 1 1 -0 1
-3 0 0 -0 3 1 2 2 1 2 1 2 -2 -3 -4 -1 -5 1 -2 4 -0 -4 -2 -1 -3 -1 -5 -3 2 -4 -2 -4 -4 -2 2 -0 -0 0 1 -1 -0 -0 -2
0 -1 -1 0 0 2 1 1 -0 -0 -2 -0 -0 -3 -5 0 2 1 2 2 -3 -3 -2 -1 -2 -3 -5 -4 -5 -4 -2 1 -0 -0 0 -1 -2 -2 -3 -2 -0 -1 -2
0 -3 -2 -3 -1 -1 0 2 -1 -2 2 0 -1 -4 0 1 -0 2 3 -1 -4 -0 0 -1 -0 -3 -1 -3 -4 -4 -3 -2 -3 -5 -4 -2 -3 -1 -2 -1 -2 -5 -6
0 -1 -0 -0 -2 -3 -2 1 1 1 -1 -1 0 0 -1 2 -0 3 1 -1 -1 1 -2 -1 -4 -4 -4 -4 -3 -5 -3 -4 -4 -4 -4 -3 -2 -1 -2 -2 -1 1 2
-1 -1 0 1 -0 -1 -1 -0 2 2 1 1 -0 -0 0 -0 2 1 1 -1 0 2 -1 -3 -4 -2 -2 -4 -6 -3 -1 -1 -2 -3 -2 -2 -3 -4 -3 -3 -2 -2 -2
-1 -1 -1 -0 1 0 -0 1 1 1 1 1 2 -1 -0 0 1 2 1 -0 1 1 -1 -2 -2 -2 -2 -2 -3 -1 -3 -2 -0 -0 1 -0 -2 -1 1 -0 -1 -1 -1
0 -1 -1 -0 1 -2 0 1 0 0 1 1 1 2 1 2 3 1 0 1 -0 -0 -0 -1 -1 -1 -3 -1 -0 -0 -4 -3 -2 -4 -3 -3 -3 -1 -1 -0 0 -0 -1
Height
5886 5888 5891 5894 5896 5897 5898 5900 5902 5904 5905 5905 5906 5907 5908 5909 5911 5912 5912 5914 5915 5916 5916 5917 5918 5919 5920 5921 5921 5922 5923 5923 5923 5922 5923 5923 5922 5921 5920 5918 5917 5916 5916
5882 5886 5887 5889 5891 5894 5897 5898 5899 5900 5901 5902 5903 5903 5903 5904 5905 5905 5906 5907 5908 5909 5910 5911 5912 5913 5914 5915 5915 5916 5915 5916 5917 5917 5916 5917 5917 5916 5914 5913 5912 5911 5911
5880 5882 5883 5885 5888 5890 5892 5894 5896 5897 5897 5897 5898 5899 5900 5900 5900 5900 5901 5902 5902 5902 5902 5903 5905 5904 5906 5907 5907 5908 5908 5909 5911 5911 5910 5910 5910 5911 5909 5907 5906 5905 5905
5877 5877 5878 5881 5883 5885 5887 5888 5890 5891 5892 5893 5893 5895 5895 5895 5894 5894 5895 5895 5894 5894 5894 5894 5895 5895 5896 5897 5897 5899 5899 5900 5902 5903 5904 5902 5902 5902 5902 5901 5900 5899 5898
5872 5873 5874 5876 5877 5880 5881 5882 5883 5885 5885 5887 5887 5888 5889 5889 5889 5890 5890 5889 5888 5887 5886 5886 5885 5886 5887 5887 5887 5888 5889 5890 5892 5894 5895 5895 5894 5893 5893 5893 5893 5892 5892
5866 5867 5869 5870 5872 5873 5874 5876 5875 5877 5879 5879 5880 5882 5883 5883 5884 5883 5882 5881 5880 5880 5879 5877 5876 5877 5878 5877 5877 5878 5879 5881 5882 5883 5885 5886 5885 5883 5882 5884 5884 5884 5885
5861 5862 5864 5864 5867 5868 5869 5869 5869 5872 5873 5875 5874 5876 5877 5878 5876 5875 5874 5873 5872 5871 5870 5868 5868 5868 5868 5868 5866 5865 5868 5870 5872 5872 5875 5875 5874 5874 5873 5875 5874 5873 5873
5856 5857 5859 5859 5860 5862 5864 5864 5864 5866 5867 5868 5868 5869 5869 5870 5869 5867 5866 5864 5863 5862 5861 5860 5860 5858 5858 5856 5855 5855 5857 5858 5860 5861 5863 5863 5863 5863 5863 5861 5863 5862 5862
5849 5851 5849 5848 5849 5851 5856 5860 5859 5860 5862 5862 5863 5863 5862 5862 5860 5859 5858 5857 5856 5855 5853 5851 5850 5850 5848 5847 5847 5847 5847 5848 5848 5849 5850 5853 5852 5852 5851 5851 5852 5850 5850
5841 5843 5842 5836 5828 5844 5848 5848 5851 5853 5855 5856 5856 5855 5855 5852 5851 5850 5849 5847 5846 5845 5843 5842 5840 5840 5838 5837 5836 5836 5838 5839 5836 5838 5839 5838 5839 5840 5839 5839 5839 5838 5837
5832 5834 5835 5837 5834 5838 5838 5840 5844 5846 5849 5850 5849 5848 5846 5844 5843 5842 5841 5838 5837 5835 5832 5830 5830 5830 5830 5828 5827 5826 5829 5827 5826 5827 5829 5829 5827 5827 5828 5828 5826 5828 5828
5823 5822 5823 5825 5826 5819 5825 5829 5836 5838 5840 5841 5842 5840 5839 5837 5836 5834 5832 5830 5829 5827 5824 5822 5820 5820 5818 5817 5817 5818 5816 5815 5815 5816 5818 5820 5819 5817 5819 5818 5817 5817 5815
5815 5813 5811 5809 5811 5814 5812 5823 5827 5831 5834 5834 5835 5834 5833 5832 5829 5826 5823 5822 5820 5818 5816 5814 5812 5809 5807 5805 5803 5802 5804 5804 5805 5805 5807 5808 5808 5808 5808 5808 5808 5806 5805
5805 5804 5799 5798 5801 5805 5811 5815 5821 5826 5827 5828 5829 5828 5827 5825 5821 5818 5815 5812 5811 5810 5807 5805 5802 5799 5796 5794 5792 5790 5790 5791 5793 5794 5794 5795 5795 5796 5797 5797 5798 5797 5796
5801 5796 5793 5790 5794 5797 5805 5812 5817 5820 5822 5823 5822 5822 5820 5817 5813 5809 5806 5803 5801 5799 5796 5793 5790 5788 5785 5783 5781 5780 5780 5779 5779 5780 5780 5782 5783 5784 5786 5787 5786 5786 5785
5796 5794 5793 5794 5797 5800 5804 5809 5813 5814 5816 5816 5815 5815 5814 5810 5805 5802 5798 5797 5793 5789 5787 5784 5781 5779 5777 5774 5772 5770 5769 5767 5767 5766 5769 5770 5771 5773 5775 5776 5776 5776 5775
5794 5794 5794 5795 5797 5800 5803 5804 5806 5808 5810 5808 5808 5809 5806 5804 5799 5795 5791 5789 5785 5782 5778 5776 5773 5770 5768 5765 5763 5762 5760 5758 5757 5757 5759 5761 5762 5764 5765 5766 5766 5766 5765
5789 5791 5792 5793 5794 5795 5797 5798 5800 5800 5801 5802 5803 5802 5799 5796 5792 5789 5785 5782 5780 5777 5773 5770 5766 5764 5760 5758 5756 5755 5754 5752 5751 5752 5754 5755 5756 5757 5757 5757 5757 5757 5757
5784 5786 5787 5788 5788 5790 5791 5792 5793 5794 5795 5796 5795 5794 5791 5789 5786 5782 5781 5778 5775 5771 5768 5765 5762 5759 5756 5753 5752 5751 5748 5747 5747 5748 5750 5750 5750 5750 5750 5750 5750 5749 5748
5779 5780 5781 5782 5783 5784 5785 5785 5786 5788 5788 5789 5788 5787 5785 5782 5780 5779 5777 5775 5772 5768 5763 5761 5759 5756 5754 5752 5751 5747 5745 5747 5746 5744 5744 5744 5743 5743 5743 5742 5742 5741 5741
5773 5775 5775 5776 5777 5778 5779 5779 5780 5781 5782 5781 5782 5781 5778 5777 5777 5776 5774 5774 5770 5766 5762 5759 5756 5754 5752 5749 5746 5744 5744 5743 5743 5742 5741 5739 5738 5738 5737 5736 5735 5734 5734
5765 5767 5769 5771 5771 5771 5772 5772 5773 5774 5775 5775 5774 5773 5773 5773 5772 5772 5772 5772 5768 5765 5762 5760 5757 5754 5752 5750 5748 5745 5744 5743 5742 5740 5739 5738 5737 5737 5736 5736 5736 5735 5735
5758 5759 5760 5761 5762 5763 5764 5765 5765 5766 5766 5767 5767 5767 5768 5767 5766 5767 5768 5768 5766 5763 5761 5760 5758 5755 5753 5752 5750 5748 5746 5744 5742 5740 5739 5738 5738 5737 5737 5736 5736 5736 5735
5749 5750 5751 5752 5753 5754 5755 5756 5757 5757 5758 5760 5761 5761 5762 5761 5762 5763 5763 5762 5761 5760 5759 5759 5756 5754 5753 5752 5751 5749 5747 5746 5744 5742 5741 5739 5737 5736 5735 5734 5734 5734 5734
5742 5743 5744 5745 5746 5746 5747 5749 5751 5752 5753 5754 5755 5755 5756 5756 5756 5757 5757 5756 5756 5756 5757 5756 5754 5752 5751 5750 5750 5748 5747 5745 5744 5743 5741 5739 5737 5735 5735 5734 5734 5733 5732
5737 5738 5739 5740 5741 5741 5742 5744 5745 5746 5747 5747 5748 5748 5749 5750 5751 5751 5750 5750 5751 5752 5752 5752 5750 5749 5749 5748 5747 5745 5744 5743 5742 5741 5739 5737 5736 5735 5734 5733 5732 5731 5729